Terminal Aerodrome Forecast
Issued by NWS

Home | Current Version | Previous Version | Graphics & Text | Print | Product List | Glossary On
Versions: 1 2 3 4 5 6 7 8 9 10 11 12 13 14
000
FTUS43 KMPX 262320
TAFAXN
TAF
KAXN 262320Z 2700/2724 02005KT P6SM SCT018 BKN030
     FM270200 35005KT P6SM OVC025
     FM270500 VRB03KT P6SM SCT025 OVC050
      TEMPO 2709/2713 6SM BR OVC025
     FM271400 VRB04KT P6SM SCT030 OVC100
     FM272200 01005KT P6SM BKN200=

USA.gov is the U.S. government's official web portal to all federal, state and local government web resources and services.